アイラス彗星

126P/IRAS (2023)

English version
Home page
Updated on May 13, 2024

---------------------------------------------------------------------

・ プロフィール

・ 写真集

・ 軌道要素

Epoch 2024 Mar. 31.0 TT = JDT 2460400.5
T 2023 July 5.27954 TT                                  Rudenko
q   1.7103357            (2000.0)            P               Q
n   0.07370746     Peri.  356.57967     +0.99597318     +0.08555666
a   5.6337178      Node   357.86133     -0.05523008     +0.35019611
e   0.6964108      Incl.   45.87066     -0.07061916     +0.93276082
P  13.4
>From 1624 observations 2009 May 27-2024 Feb. 8, mean residual 0".6.
     Nongravitational parameters A1 = +0.01, A2 = +0.1882.

・ 星図

・ 光度変化

        m1 = 9.2 + 5 logΔ + 15.0 log r

---------------------------------------------------------------------

軌道要素はM.P.E.C. 2024-D126に掲載されたものです。
星図はステラナビゲータ Ver.10 (アストロアーツ) で作成したものです。
光度グラフはComet for Windowsで作成したものです。

---------------------------------------------------------------------

Copyright(C) Seiichi Yoshida (comet@aerith.net). All rights reserved.